TimeEDT,TemperatureF,Dew PointF,Humidity,Sea Level PressureIn,VisibilityMPH,Wind Direction,Wind SpeedMPH,Gust SpeedMPH,PrecipitationIn,Events,Conditions,WindDirDegrees,DateUTC
12:53 AM,70.0,57.9,65,29.76,10.0,WSW,4.6,-,N/A,,Clear,240,2013-05-22 04:53:00
1:53 AM,70.0,59.0,68,29.75,10.0,SW,6.9,-,N/A,,Clear,230,2013-05-22 05:53:00
2:53 AM,70.0,59.0,68,29.75,10.0,WSW,5.8,-,N/A,,Clear,240,2013-05-22 06:53:00
3:53 AM,69.1,60.1,73,29.74,10.0,SW,8.1,-,N/A,,Partly Cloudy,230,2013-05-22 07:53:00
4:53 AM,70.0,59.0,68,29.74,10.0,SW,11.5,-,N/A,,Overcast,230,2013-05-22 08:53:00
5:53 AM,69.1,59.0,70,29.74,10.0,SW,6.9,-,N/A,,Overcast,220,2013-05-22 09:53:00
6:53 AM,68.0,61.0,78,29.75,9.0,SSW,6.9,-,0.00,Rain,Light Rain,200,2013-05-22 10:53:00
7:53 AM,66.9,63.0,87,29.76,10.0,SSW,6.9,-,0.02,,Scattered Clouds,210,2013-05-22 11:53:00
8:45 AM,69.8,64.4,83,29.77,10.0,SSW,12.7,-,N/A,,Mostly Cloudy,210,2013-05-22 12:45:00
8:53 AM,69.1,64.0,84,29.75,10.0,SSW,9.2,-,N/A,,Mostly Cloudy,200,2013-05-22 12:53:00
9:53 AM,69.1,63.0,81,29.75,10.0,SSW,10.4,-,0.00,,Overcast,210,2013-05-22 13:53:00
10:18 AM,69.8,62.6,78,29.75,10.0,SSW,15.0,-,N/A,,Overcast,210,2013-05-22 14:18:00
10:53 AM,71.1,63.0,75,29.74,10.0,SSW,13.8,-,N/A,,Overcast,210,2013-05-22 14:53:00
11:10 AM,71.6,62.6,73,29.74,10.0,SSW,15.0,20.7,N/A,,Overcast,210,2013-05-22 15:10:00
11:51 AM,71.6,62.6,73,29.73,10.0,SSW,17.3,-,0.00,,Overcast,200,2013-05-22 15:51:00
11:53 AM,70.0,62.1,76,29.73,10.0,SSW,16.1,-,0.00,,Overcast,200,2013-05-22 15:53:00
12:53 PM,73.0,63.0,71,29.72,10.0,SW,16.1,23.0,N/A,,Mostly Cloudy,220,2013-05-22 16:53:00
1:02 PM,73.4,62.6,69,29.73,10.0,SW,23.0,27.6,N/A,,Mostly Cloudy,220,2013-05-22 17:02:00
1:22 PM,73.4,60.8,65,29.73,10.0,SW,23.0,31.1,N/A,,Mostly Cloudy,220,2013-05-22 17:22:00
1:51 PM,75.2,60.8,61,29.72,10.0,SW,19.6,26.5,N/A,,Mostly Cloudy,230,2013-05-22 17:51:00
1:53 PM,75.0,61.0,62,29.71,10.0,WSW,19.6,26.5,N/A,,Mostly Cloudy,240,2013-05-22 17:53:00
2:53 PM,77.0,59.0,54,29.69,10.0,SW,18.4,28.8,N/A,,Mostly Cloudy,230,2013-05-22 18:53:00
3:53 PM,78.1,55.9,46,29.68,10.0,WSW,17.3,31.1,N/A,,Mostly Cloudy,240,2013-05-22 19:53:00
4:42 PM,68.0,60.8,78,29.72,1.8,WSW,25.3,47.2,0.08,Rain,Heavy Rain,240,2013-05-22 20:42:00
4:47 PM,64.4,60.8,88,29.72,0.8,WSW,16.1,47.2,0.15,Rain,Heavy Rain,240,2013-05-22 20:47:00
4:53 PM,64.9,62.1,90,29.71,1.2,WSW,13.8,28.8,0.19,Rain,Heavy Rain,250,2013-05-22 20:53:00
4:56 PM,64.4,62.6,94,29.72,2.0,WSW,11.5,24.2,0.00,Rain,Light Rain,250,2013-05-22 20:56:00
5:04 PM,66.2,62.6,88,29.71,6.0,WSW,8.1,19.6,0.01,Rain,Light Rain,250,2013-05-22 21:04:00
5:53 PM,70.0,64.0,81,29.68,10.0,WSW,9.2,-,0.02,,Partly Cloudy,240,2013-05-22 21:53:00
6:53 PM,73.0,61.0,66,29.68,10.0,West,11.5,21.9,N/A,,Clear,260,2013-05-22 22:53:00
7:42 PM,68.0,59.0,73,29.74,1.5,WNW,21.9,36.8,0.12,Rain,Light Rain,290,2013-05-22 23:42:00
7:53 PM,63.0,59.0,87,29.71,3.0,NW,9.2,23.0,0.17,Rain,Light Rain,320,2013-05-22 23:53:00
8:53 PM,62.1,59.0,90,29.72,10.0,West,4.6,-,0.00,,Scattered Clouds,260,2013-05-23 00:53:00
9:53 PM,62.1,59.0,90,29.73,10.0,WSW,4.6,-,N/A,,Overcast,240,2013-05-23 01:53:00
10:53 PM,62.1,59.0,90,29.74,10.0,West,3.5,-,N/A,,Mostly Cloudy,260,2013-05-23 02:53:00
11:53 PM,61.0,59.0,93,29.74,9.0,Calm,Calm,-,N/A,,Clear,0,2013-05-23 03:53:00